Location: *
(46.1006°N, 1.8394°E)
Time: 05:21:59
(UTC+00:00)

NOAA 11 - Pass Details

Date: 20 September 2019
Orbit: 832 x 850 km, 98.4° (Epoch: 18 October)

Event Time Altitude Azimuth Distance (km) Brightness Sun altitude
Rises 18:13:07 0° 148° (SSE) 3,403 7.0 -4.0°
Reaches altitude 10° 18:15:32 10° 144° (SE) 2,470 6.2 -4.4°
Maximum altitude 18:20:49 51° 69° (ENE) 1,059 4.4 -5.3°
Drops below altitude 10° 18:26:08 10° 355° (N) 2,478 6.8 -6.2°
Sets 18:28:33 0° 351° (N) 3,415 7.6 -6.6°
